Home > Time Zones > World Clock > Weather > U.S.A. > Napa > Past weeks

Flag for U.S.A. Weather past 2 weeks in Napa, California, U.S.A.

Now
39 °F

Clear.


Feels Like: 36 °F
Forecast: 39 / 64 °F
Wind: 5 mph from North

Location: Napa County Airport

Current Time: Mar 3, 2015 at 4:44:05 AM

Latest Report: Mar 3, 2015 at 3:54 AM


Visibility: 10 mi

Pressure: 29.97 "Hg

Humidity: 93%

Dew point: 37 °F

Location of NapaLocation

Historic Weather in Napa — Graph

°F

Napa temperature yesterday

Maximum temperature yesterday: 58 °F (at 12:54 PM)
Minimum temperature yesterday: 39 °F (at 12:54 AM)
Average temperature yesterday: 48 °F

Past Weeks' High & Low Weather Summary

 TemperatureHumidityPressure
High72 °F (Feb 16, 1:54 PM)100% (Feb 16, 3:54 AM)30.34 "Hg (Feb 16, 3:54 AM)
Low30 °F (Feb 24, 3:54 AM)21% (Feb 23, 6:54 AM)29.68 "Hg (Feb 27, 5:54 PM)
Average51 °F77%29.98 "Hg
* Reported Feb 16 2:54 AM — Mar 3 2:54 AM, Napa, Weather by CustomWeather, © 2015

Note: Actual official high and low records may vary slightly from our data, if they occured in-between our weather recording intervals... More about our weather records

Advertising

Napa weather history for previous 24 hours

 ConditionsComfort  
Time TempWeatherWind HumidityBarometerVisibility
2:54 AM
Tue, Mar 3
39 °FClear.No wind96%29.97 "Hg10 mi
1:54 AM41 °FClear.No wind89%29.98 "Hg10 mi
12:54 AM42 °FClear.7 mph89%29.97 "Hg10 mi
11:54 PM
Mon, Mar 2
43 °FClear.6 mph89%29.96 "Hg10 mi
10:54 PM44 °FClear.6 mph93%29.95 "Hg10 mi
9:54 PM47 °FPassing clouds.No wind83%29.93 "Hg10 mi
8:54 PM48 °FPassing clouds.3 mph83%29.91 "Hg10 mi
7:54 PM49 °FOvercast.No wind86%29.89 "Hg10 mi
6:54 PM50 °FOvercast.3 mph77%29.86 "Hg10 mi
5:54 PM52 °FPassing clouds.7 mph72%29.83 "Hg10 mi
4:54 PM57 °FSunny.7 mph60%29.80 "Hg10 mi
3:54 PM57 °FSunny.3 mph58%29.80 "Hg10 mi
2:54 PM58 °FScattered clouds.9 mph60%29.78 "Hg10 mi
1:54 PM57 °FScattered clouds.9 mph64%29.78 "Hg10 mi
12:54 PM58 °FSunny.12 mph58%29.78 "Hg10 mi
11:54 AM57 °FScattered clouds.10 mph58%29.78 "Hg10 mi
10:54 AM55 °FScattered clouds.14 mph67%29.77 "Hg10 mi
9:54 AM54 °FPartly sunny.14 mph72%29.77 "Hg10 mi
8:54 AM53 °FMore clouds than sun.14 mph83%29.77 "Hg10 mi
7:54 AM47 °FPassing clouds.No wind93%29.77 "Hg10 mi
6:54 AM40 °FPassing clouds.3 mph97%29.78 "Hg10 mi
5:54 AM39 °FClear.6 mph96%29.78 "Hg10 mi
4:54 AM39 °FClear.No wind96%29.80 "Hg10 mi
Weather by CustomWeather, © 2015

See weather overviewHow to use our weather pages